Tracking 30995 objects as of 5-Jul-2025
HD Live streaming from Space Station
objects crossing your sky now

PEGASUS DEB

Track PEGASUS DEB now!
10-day predictions


NORAD ID: 25442
Int'l Code: 1994-029ADX
Perigee: 556.6 km
Apogee: 860.1 km
Inclination: 81.8 °
Period: 98.8 minutes
Semi major axis: 7079 km
RCS: 0.0116 m2 (small)
Launch date: May 19, 1994
Source: United States (US)
Launch site: AIR FORCE WESTERN TEST RANGE (AFWTR)

Note: This is SATELLITE DEBRIS
Your satellite tracking list
STARLINK-11109
Track 1 satellite(s)




NASA's NSSDC Master Catalog

Two Line Element Set (TLE):
1 25442U 94029ADX 25183.07655528  .00002844  00000-0  45315-3 0  9997
2 25442  81.7562 309.6219 0214288 278.9466  78.7532 14.57514584501221
Source of the keplerian elements: AFSPC